Tracking 29892 objects as of 21-Nov-2024
HD Live streaming from Space Station
objects crossing your sky now

FENGYUN 1C DEB

Track FENGYUN 1C DEB now!
10-day predictions


NORAD ID: 29917
Int'l Code: 1999-025HP
Perigee: 841.6 km
Apogee: 1,178.9 km
Inclination: 98.9 °
Period: 105.2 minutes
Semi major axis: 7381 km
RCS: 0.023 m2 (small)
Launch date: May 10, 1999
Source: People's Republic of China (PRC)
Launch site: Taiyaun Space Center, China (TSC)

Note: This is SATELLITE DEBRIS
Your satellite tracking list
Your tracking list is empty




NASA's NSSDC Master Catalog

Two Line Element Set (TLE):
1 29917U 99025HP  24325.65541431  .00002395  00000-0  23449-2 0  9991
2 29917  98.9032 210.3409 0228436  64.8764 326.0704 13.69018158888312
Source of the keplerian elements: AFSPC